This is the latest recevied weather packets stored in our database for station/object KC3BBT-13. If no packets are shown the sender has not sent any weather packets the latest 10 day(s).
| Time | Temp. | Humidity | Pressure | Rain* | Wind** | Luminosity | Snow |
|---|---|---|---|---|---|---|---|
| 1778086716 | 17.22° C | 89% | 1009.8 hPa | 0 mm | - | - | - |
| 1778085841 | 17.22° C | 90% | 1009.8 hPa | 0 mm | - | - | - |
| 1778085077 | 16.67° C | 91% | 1009.8 hPa | 0 mm | - | - | - |
| 1778084318 | 16.67° C | 92% | 1009.8 hPa | 0 mm | - | - | - |
| 1778083877 | 16.11° C | 92% | 1010 hPa | 0 mm | - | - | - |
| 1778083589 | 16.11° C | 92% | 1010 hPa | 0 mm | - | - | - |
| 1778083072 | 16.11° C | 92% | 1010.1 hPa | 0 mm | - | - | - |
| 1778082831 | 16.11° C | 92% | 1010.1 hPa | 0 mm | - | - | - |
| 1778081981 | 16.11° C | 92% | 1010.1 hPa | 0 mm | - | - | - |
| 1778081562 | 15.56° C | 92% | 1010.3 hPa | 0 mm | - | - | - |
| 1778081256 | 15.56° C | 92% | 1010.3 hPa | 0 mm | - | - | - |
| 1778080660 | 15.56° C | 91% | 1010.3 hPa | 0 mm | - | - | - |
| 1778080516 | 15.56° C | 91% | 1010.3 hPa | 0 mm | - | - | - |
| 1778079659 | 15.56° C | 91% | 1010.7 hPa | 0 mm | - | - | - |
| 1778079203 | 15.56° C | 91% | 1011 hPa | 0 mm | - | - | - |
| 1778078881 | 15.56° C | 91% | 1011 hPa | 0 mm | - | - | - |
| 1778077991 | 15.56° C | 91% | 1010.9 hPa | 0 mm | - | - | - |
| 1778077247 | 15.56° C | 90% | 1011 hPa | 0 mm | - | - | - |
| 1778076476 | 16.11° C | 89% | 1010.9 hPa | 0 mm | - | - | - |
| 1778075671 | 16.11° C | 88% | 1010.9 hPa | 0 mm | - | - | - |
| 1778075076 | 16.11° C | 88% | 1011.2 hPa | 0 mm | - | - | - |
| 1778074891 | 16.11° C | 88% | 1011.2 hPa | 0 mm | - | - | - |
| 1778074107 | 16.67° C | 87% | 1011.4 hPa | 0 mm | - | - | - |
| 1778073435 | 16.67° C | 86% | 1011.5 hPa | 0 mm | - | - | - |
| 1778073347 | 16.67° C | 86% | 1011.5 hPa | 0 mm | - | - | - |
* Rain latest hour (hover to see other rain measurements)
** Current wind speed in m/s (hover to see current wind gust speed)